CAPE
0 0 0 0 0 0 0 0 0 0 0 0 0 0 0 0 0 0 0 87 107 0 0 0 0 0 0 0 0 0 0 0 0 0 0 0 0 0 0 0 0 0 0 0 0 0 0 0 0
0 0 0 0 0 0 0 0 0 4 1 0 0 0 0 0 0 0 1 93 55 1 0 0 0 0 0 0 0 0 0 0 0 0 0 0 0 0 0 0 0 0 0 0 0 0 0 0 0
0 0 0 0 0 0 0 0 5 20 45 2 0 0 0 0 0 5 2 190 114 0 0 0 0 0 0 0 0 0 0 0 0 0 0 0 0 0 0 0 0 0 0 17 32 42 33 4 8
0 0 0 0 0 0 0 0 0 4 0 0 0 0 0 0 0 0 96 109 115 61 0 0 0 0 0 0 0 0 0 0 0 0 0 0 0 0 0 0 0 0 34 142 219 282 206 139 56
0 0 0 0 0 0 0 0 5 11 19 30 9 0 0 0 0 0 0 178 52 69 10 0 0 0 0 0 0 0 0 0 0 0 0 9 17 27 30 32 102 201 301 329 260 403 449 368 294
0 0 0 0 0 0 0 0 0 11 0 0 0 5 0 0 0 0 0 0 51 34 28 87 7 0 0 0 0 0 0 0 0 2 11 19 35 36 45 120 246 451 586 397 414 348 407 395 335
0 0 0 0 0 0 0 0 0 0 0 0 0 0 0 0 0 0 0 0 0 95 58 208 118 10 0 0 0 0 0 0 0 23 31 55 57 57 70 189 381 690 597 358 175 100 116 151 262
0 0 0 0 0 0 0 0 0 0 0 0 0 0 0 0 0 0 0 0 0 85 224 175 231 218 4 0 0 0 0 0 2 43 52 93 108 121 119 98 318 539 368 157 41 34 23 32 135
0 0 0 0 0 0 0 0 0 0 0 0 0 0 0 0 0 0 0 0 0 26 290 323 253 283 251 55 113 55 9 23 74 83 88 206 151 142 53 318 517 529 357 190 153 130 32 0 40
0 0 0 0 0 0 0 0 0 0 0 0 0 0 0 0 0 0 0 0 0 0 224 468 322 267 348 325 279 240 67 181 295 242 186 257 143 84 100 361 657 680 486 433 266 165 11 46 0
0 0 0 0 0 0 0 0 0 0 0 16 1 0 0 0 0 0 0 0 0 0 0 361 451 373 451 586 543 483 174 138 417 324 209 237 151 208 381 257 486 493 538 291 257 126 45 3 2
0 0 0 0 0 0 0 0 0 0 0 0 0 0 0 0 0 0 0 0 0 0 0 47 649 683 813 874 647 662 411 295 232 270 180 282 390 512 549 348 334 364 319 207 52 121 118 20 69
0 0 0 0 0 0 0 0 0 0 0 0 0 0 0 0 0 0 0 0 0 0 0 0 243 916 1043 863 780 796 698 576 422 302 302 447 662 631 363 200 235 304 267 211 199 220 94 133 76
0 0 0 0 0 0 0 0 0 0 0 0 0 0 0 0 0 0 0 0 0 0 0 0 178 718 1108 930 776 849 866 745 625 670 606 702 710 546 398 493 609 430 296 190 246 157 12 1 4
0 0 0 0 0 0 0 0 0 0 0 0 0 0 0 0 0 0 0 0 0 5 0 0 136 530 795 1002 748 894 1010 916 873 772 940 992 907 650 446 518 445 497 392 303 165 95 111 47 3
0 0 0 0 0 0 0 0 0 0 0 0 0 0 0 0 0 0 0 0 7 0 0 1 333 529 883 905 1311 955 1057 1045 922 790 981 951 695 438 442 529 454 422 472 361 228 120 53 61 32
0 0 0 0 0 0 0 0 0 0 0 0 0 0 0 0 0 0 0 0 0 0 0 8 313 465 894 1171 1246 1524 1262 994 701 365 364 493 363 407 527 568 575 581 618 567 359 141 77 31 17
0 0 0 0 0 0 0 0 0 0 0 0 0 0 0 0 0 0 0 0 0 0 0 68 240 795 1282 1639 1557 1369 1361 935 468 308 224 433 457 507 549 583 582 514 576 551 335 150 205 136 53
0 0 0 0 0 0 0 0 0 0 0 0 0 0 0 0 0 0 0 0 0 9 155 206 401 1122 1547 1758 1734 1391 1220 838 598 312 206 369 407 530 644 696 569 656 656 499 354 278 192 118 88
0 0 0 0 0 0 0 0 0 0 0 0 0 0 0 0 0 0 0 0 7 30 326 623 1110 1447 1777 1782 1698 1452 1112 572 343 260 206 358 566 577 443 404 368 418 314 278 194 137 120 83 22
0 0 0 0 0 0 0 0 0 0 0 0 0 0 0 0 0 0 0 0 56 192 454 820 1462 1754 1925 1814 1625 1364 736 422 386 203 227 341 361 417 436 417 345 364 372 270 132 114 113 112 34
0 0 0 0 0 0 0 0 0 0 0 0 0 0 0 0 0 0 0 0 148 422 679 877 1485 1988 1865 1665 1331 1011 578 399 213 255 317 368 423 459 402 347 243 269 296 324 314 278 176 129 41
0 0 0 0 0 0 0 0 0 0 0 0 0 0 0 0 0 0 0 2 413 539 619 917 1319 1540 1418 1207 820 513 340 150 195 238 263 406 414 376 363 351 339 324 321 326 336 240 225 164 106
0 0 0 0 0 0 0 0 0 0 0 0 0 0 0 0 0 0 212 441 550 708 890 1173 1334 1280 868 682 471 195 148 282 147 240 269 257 302 364 380 370 205 112 207 179 276 286 226 113 129
0 0 0 0 0 0 0 0 0 0 0 0 0 0 0 0 0 80 297 476 628 789 1013 1046 1031 905 610 482 205 246 204 238 311 293 255 278 295 207 209 236 58 42 229 309 335 166 129 155 142
0 0 0 0 0 0 0 0 0 0 0 0 0 0 0 104 121 268 431 558 732 893 897 814 783 530 455 344 258 309 219 164 290 165 79 95 57 228 10 176 221 324 443 529 347 191 184 184 142
0 0 0 0 0 0 0 0 0 0 0 0 0 0 122 248 338 415 458 626 770 786 662 760 557 351 391 146 296 269 284 275 294 154 139 37 131 0 187 173 242 349 346 332 289 159 119 69 47
0 0 0 0 0 0 0 0 0 0 0 0 0 20 250 379 412 374 456 627 673 645 624 690 462 340 258 185 298 251 403 191 213 58 11 30 93 156 119 219 330 97 182 117 127 76 79 24 26
0 0 0 0 0 0 0 0 0 0 0 0 0 132 267 294 337 367 493 550 553 636 619 551 401 283 185 187 238 130 55 205 29 9 12 18 10 32 28 25 62 137 64 59 146 83 53 0 2
0 0 0 0 0 0 0 0 0 3 0 0 15 213 275 326 319 425 438 490 573 513 517 387 246 233 76 245 286 229 252 95 8 0 6 0 0 0 7 72 55 67 35 0 87 62 56 0 0
CIN
0 0 0 0 0 0 0 0 0 0 -4 0 0 0 0 0 0 0 0 -226 -303 0 0 0 0 0 0 0 0 0 0 0 0 0 0 0 0 0 0 0 0 0 0 0 0 0 0 0 0
0 0 0 0 0 0 0 0 0 -56 -12 0 0 0 0 0 0 0 -92 -222 -271 -92 0 0 0 0 0 0 0 0 0 0 0 0 0 0 0 0 0 0 0 0 0 0 0 0 0 0 0
0 0 0 0 0 0 0 0 -73 -58 -53 -8 0 0 0 0 -8 -89 -122 -264 -355 0 0 0 0 0 0 0 0 0 0 0 0 0 0 0 0 0 0 0 0 0 0 -78 -73 -103 -99 -45 -68
0 0 0 0 0 0 0 0 -0 -14 -2 0 0 0 0 0 0 0 -192 -204 -257 -389 0 0 0 0 0 0 0 0 0 0 0 0 0 0 0 0 0 0 0 0 -105 -33 -6 -6 -2 -21 -37
0 0 0 0 0 0 0 0 -30 -40 -76 -47 -14 0 0 0 0 -11 0 -178 -184 -281 -188 -0 0 0 0 0 0 0 0 0 0 0 0 -431 -384 -352 -322 -272 -199 -108 -47 -11 -8 -0 -0 -1 -3
0 0 0 0 0 0 0 -22 0 -8 0 0 0 -5 0 0 0 0 0 0 -198 -218 -301 -416 -219 0 0 0 0 0 0 0 0 -161 -467 -439 -396 -368 -337 -251 -154 -69 -25 -24 -2 -1 -0 -0 -2
0 0 0 0 0 0 0 0 0 0 0 -2 -0 0 0 0 0 0 0 0 0 -194 -246 -321 -406 -217 0 0 0 0 0 0 0 -482 -465 -431 -406 -389 -351 -241 -145 -42 -30 -81 -117 -142 -105 -69 -14
0 0 0 0 0 0 0 0 0 0 0 0 0 0 0 0 0 -4 -30 0 0 -191 -228 -270 -361 -465 -149 -38 0 0 0 0 -223 -492 -464 -421 -402 -367 -334 -324 -212 -110 -138 -201 -208 -220 -276 -279 -131
0 0 0 0 0 0 0 0 0 0 0 0 0 0 0 0 0 0 0 0 0 -81 -194 -326 -352 -444 -534 -594 -559 -539 -486 -519 -486 -468 -460 -395 -417 -381 -424 -250 -182 -146 -196 -229 -190 -169 -276 0 -265
-13 0 0 0 0 0 0 0 0 0 0 0 0 0 -3 0 0 0 0 0 0 0 -204 -316 -330 -373 -501 -501 -551 -563 -556 -519 -461 -440 -439 -409 -424 -436 -373 -260 -166 -141 -183 -177 -171 -165 -311 -206 0
0 0 0 0 0 0 0 0 0 0 0 -16 -30 0 0 0 0 0 0 0 0 0 0 -241 -291 -331 -438 -397 -513 -544 -577 -579 -476 -447 -452 -423 -411 -334 -245 -285 -188 -174 -144 -191 -167 -184 -194 -171 -125
0 0 0 0 0 0 0 0 0 0 0 0 0 0 0 0 0 0 0 0 0 0 0 -123 -231 -280 -367 -350 -449 -488 -506 -549 -553 -492 -481 -406 -307 -227 -198 -245 -224 -205 -194 -188 -239 -169 -159 -205 -80
0 0 0 0 0 0 0 0 0 0 0 0 0 0 0 0 0 0 0 0 0 0 0 0 -183 -218 -275 -300 -367 -418 -452 -462 -451 -454 -441 -362 -240 -181 -214 -257 -194 -173 -176 -169 -141 -101 -116 -104 -64
0 0 0 0 0 0 0 0 0 0 0 0 0 0 0 0 0 0 0 0 0 0 0 0 -133 -172 -236 -248 -306 -330 -386 -412 -382 -358 -353 -283 -212 -194 -202 -140 -88 -107 -128 -90 -65 -71 -91 -108 -26
0 0 0 0 0 0 0 0 0 0 0 0 0 0 0 0 0 0 0 0 0 -38 0 0 -133 -156 -191 -207 -268 -280 -295 -316 -302 -309 -271 -211 -176 -160 -144 -92 -84 -78 -92 -75 -64 -46 -48 -60 -74
0 0 0 0 0 0 0 0 0 0 0 0 0 0 0 0 0 0 0 0 -63 0 0 -19 -115 -130 -183 -194 -189 -220 -220 -217 -239 -235 -181 -155 -170 -191 -117 -87 -73 -45 -64 -70 -48 -42 -43 -30 -30
0 0 0 0 0 0 0 0 0 0 0 0 0 0 0 0 0 0 0 0 0 0 0 -97 -126 -114 -158 -207 -191 -142 -159 -172 -172 -230 -209 -168 -202 -156 -95 -71 -45 -18 -23 -17 -22 -36 -45 -39 -37
0 0 0 0 0 0 0 0 0 0 0 0 0 0 0 0 0 0 0 0 0 0 0 -88 -131 -153 -204 -227 -220 -161 -150 -184 -232 -232 -232 -154 -133 -93 -64 -58 -39 -25 -18 -19 -26 -34 -23 -24 -29
0 0 0 0 0 0 0 0 0 0 0 0 0 0 0 0 0 0 0 0 0 -77 -77 -112 -113 -195 -215 -230 -208 -181 -171 -210 -213 -216 -165 -139 -125 -57 -26 -16 -16 -24 -16 -23 -25 -23 -29 -35 -31
0 0 0 0 0 0 0 0 0 0 0 0 0 0 0 0 0 0 0 0 -84 -90 -95 -130 -155 -206 -224 -234 -218 -181 -178 -255 -250 -213 -191 -106 -50 -29 -23 -14 -29 -27 -26 -23 -28 -28 -26 -28 -31
0 0 0 0 0 0 0 0 0 0 0 0 0 0 0 0 0 0 0 0 -121 -117 -150 -177 -220 -227 -215 -201 -156 -136 -210 -238 -196 -194 -143 -86 -61 -37 -25 -24 -31 -25 -27 -34 -35 -36 -34 -25 -35
0 0 0 0 0 0 0 0 0 0 0 0 0 0 0 0 0 0 0 0 -122 -179 -279 -284 -248 -175 -168 -163 -159 -166 -202 -198 -195 -124 -92 -54 -33 -30 -28 -34 -41 -41 -38 -27 -25 -28 -38 -40 -43
0 0 0 0 0 0 0 0 0 0 0 0 0 0 0 0 0 0 0 -14 -216 -281 -329 -365 -285 -215 -206 -177 -188 -214 -189 -198 -121 -85 -65 -38 -51 -49 -43 -37 -32 -28 -26 -22 -16 -18 -19 -27 -34
0 0 0 0 0 0 0 0 0 0 0 0 0 0 0 0 0 0 -189 -210 -290 -368 -380 -331 -278 -252 -276 -250 -237 -240 -192 -109 -107 -80 -49 -52 -54 -46 -30 -29 -35 -43 -33 -34 -16 -12 -10 -30 -34
0 0 0 0 0 0 0 0 0 0 0 0 0 0 0 0 0 -216 -198 -270 -327 -378 -370 -335 -309 -287 -291 -253 -247 -165 -137 -109 -69 -44 -39 -49 -42 -42 -49 -35 -58 -50 -20 -10 -7 -30 -35 -30 -31
0 0 0 0 0 0 0 0 0 0 0 0 0 0 0 -194 -186 -207 -288 -336 -369 -377 -371 -365 -320 -325 -281 -227 -192 -126 -109 -91 -45 -66 -61 -55 -70 -41 -8 -25 -22 -10 -8 -4 -30 -26 -36 -24 -23
0 0 0 0 0 0 0 0 0 0 0 0 0 0 -132 -138 -170 -235 -312 -356 -376 -376 -388 -337 -334 -321 -245 -231 -140 -119 -95 -60 -35 -41 -45 -60 -38 0 -23 -21 -20 -13 -13 -20 -21 -35 -32 -33 -44
0 0 0 0 0 0 0 0 0 0 0 0 0 -44 -138 -172 -218 -261 -316 -353 -358 -364 -338 -291 -299 -270 -217 -181 -105 -79 -35 -58 -23 -52 -36 -70 -39 -23 -22 -24 -17 -33 -28 -35 -38 -50 -28 -32 -43
0 0 0 0 0 0 0 0 0 0 0 0 0 -115 -145 -173 -230 -293 -336 -341 -346 -315 -300 -268 -241 -221 -194 -148 -92 -106 -125 -22 -59 -44 -85 -59 -58 -67 -77 -65 -42 -35 -37 -21 -29 -27 -23 -11 -54
0 0 0 0 0 0 0 0 0 -29 0 0 -112 -122 -153 -196 -237 -297 -326 -335 -303 -301 -260 -239 -230 -179 -231 -96 -56 -64 -36 -46 -29 0 -10 0 0 0 -18 -37 -56 -52 -21 -1 -30 -26 -27 0 -3
Wind_Speed
17 15 14 15 14 14 16 14 10 21 13 17 17 18 20 19 17 15 12 12 13 13 13 12 12 12 13 13 14 14 15 15 16 16 17 17 17 17 17 17 16 15 14 14 14 15 16 18 18
14 13 15 16 16 15 16 5 21 15 11 24 21 16 15 18 17 15 12 12 13 12 11 11 11 11 12 12 12 12 13 14 14 15 15 16 16 16 16 17 16 15 14 14 14 15 16 17 17
14 18 17 16 17 13 15 22 21 19 23 28 21 17 17 13 13 13 11 11 12 11 10 9 10 9 10 10 10 11 12 12 13 13 14 15 15 15 16 16 16 15 14 14 15 15 17 17 17
12 14 18 21 18 23 21 34 25 23 20 25 21 16 14 13 14 14 12 10 10 10 10 7 8 7 8 8 9 9 10 10 11 11 12 12 13 13 15 15 15 14 15 15 15 17 18 20 19
15 18 18 20 20 26 31 29 14 7 10 6 7 19 12 13 13 13 14 8 8 6 7 6 7 6 6 6 7 7 8 8 8 9 9 10 11 12 13 14 14 13 13 15 16 17 21 25 24
17 18 23 27 28 27 26 29 16 11 21 27 19 11 11 10 12 12 13 11 4 2 2 4 6 7 6 5 6 7 7 6 6 6 7 7 8 10 12 13 13 11 11 14 15 16 17 20 24
21 24 27 29 33 37 29 26 20 24 24 22 18 14 9 8 9 11 11 7 9 1 1 1 3 7 7 6 6 7 7 7 5 4 4 4 6 7 9 11 12 11 11 13 13 14 14 17 20
23 25 32 32 35 40 32 27 21 28 22 16 17 17 15 7 9 10 10 11 7 4 2 3 3 3 5 4 5 7 8 7 6 5 2 2 3 5 7 10 11 11 11 14 13 13 13 14 15
23 33 37 35 32 34 37 32 29 25 23 25 21 21 25 30 26 18 14 20 19 10 3 5 5 5 5 5 4 6 8 7 7 6 5 2 2 4 6 9 9 9 10 12 13 14 14 14 14
29 38 38 31 34 41 40 36 41 39 31 25 28 26 27 36 23 21 24 24 24 24 8 7 7 7 6 5 4 6 8 8 8 7 6 3 2 3 6 8 6 8 8 10 12 13 13 14 15
34 49 38 40 39 40 43 41 38 39 39 32 28 25 24 35 34 25 24 26 27 24 17 9 8 8 7 7 5 5 7 8 9 8 7 5 4 4 4 8 11 10 10 12 13 12 12 13 13
42 41 39 40 39 44 47 42 45 44 40 41 40 43 34 30 33 27 24 24 24 22 20 11 8 9 9 8 6 6 5 7 8 9 9 7 5 4 5 8 9 10 11 10 11 12 10 9 8
45 45 40 42 42 45 44 49 48 48 47 48 43 45 47 41 34 29 26 25 22 22 18 15 11 11 10 10 8 7 6 5 6 7 8 8 6 4 6 9 12 12 12 12 12 13 11 8 7
45 44 47 43 47 46 47 52 50 46 39 43 43 43 44 41 38 35 30 25 23 24 18 15 10 8 9 11 10 9 7 6 5 5 5 6 5 3 8 10 10 12 13 14 15 14 13 13 14
47 53 52 54 43 44 41 62 48 45 45 50 49 53 50 42 39 32 28 27 24 19 14 12 10 8 9 11 10 10 8 7 6 5 5 5 4 5 8 11 15 15 15 16 17 17 16 15 16
48 48 61 54 47 44 34 70 51 46 47 49 56 50 43 32 28 28 34 29 19 13 15 13 12 9 9 10 8 9 7 7 6 5 4 4 4 6 9 13 16 17 17 17 18 18 18 16 15
41 51 53 54 36 35 32 59 53 45 42 42 31 28 30 28 24 24 29 23 19 19 21 18 13 10 9 8 8 5 5 4 2 2 3 3 3 6 10 14 16 18 18 18 19 18 17 17 18
39 37 42 49 38 40 42 46 62 54 39 34 33 28 25 24 22 20 25 24 22 20 19 19 13 11 9 7 6 7 6 2 4 3 4 4 4 7 12 14 15 17 18 18 18 17 15 16 18
40 41 45 44 42 46 50 45 56 52 41 33 44 35 29 23 16 14 19 19 17 19 17 14 12 11 7 7 5 5 5 3 4 6 5 4 6 9 11 14 16 17 17 18 17 15 13 13 17
45 51 51 45 39 41 48 43 43 44 39 30 25 22 21 20 15 15 20 23 18 14 14 13 10 8 7 6 6 4 3 3 5 6 4 5 6 8 12 15 16 17 17 16 15 11 13 15 12
42 44 47 48 42 50 48 48 52 52 48 41 27 29 20 16 13 15 18 24 18 15 13 12 9 7 6 4 3 2 3 5 6 4 3 5 6 10 13 14 17 17 15 13 16 11 8 11 13
49 39 42 46 42 48 40 55 51 51 50 45 49 23 20 17 15 15 16 14 9 7 9 9 7 4 2 2 1 2 3 3 4 4 6 7 8 9 12 15 15 13 11 10 11 9 6 6 8
55 39 44 38 40 45 42 38 47 19 15 28 37 22 11 11 12 12 11 8 4 3 6 5 3 3 3 4 3 3 3 6 6 6 10 11 11 12 12 11 11 10 9 9 10 9 8 7 9
44 42 44 43 42 46 26 22 47 35 26 25 19 21 14 15 14 8 6 3 1 2 3 3 3 4 5 5 6 6 6 6 7 8 9 11 11 12 10 8 8 10 11 11 11 11 10 10 11
41 40 40 42 42 34 29 27 42 23 16 13 12 9 14 9 8 2 3 3 1 3 3 3 4 5 7 8 7 6 7 10 9 10 11 11 13 12 10 10 12 11 11 12 12 13 13 14 16
43 42 41 39 37 42 43 33 40 40 34 14 17 9 11 8 6 7 5 6 7 6 5 6 9 9 8 9 9 8 9 9 10 12 12 11 12 11 12 13 13 13 12 10 12 12 12 13 15
48 51 44 47 41 40 37 41 48 44 44 18 11 6 7 10 12 12 10 8 7 7 8 11 11 10 9 10 8 9 11 11 11 12 12 13 13 13 13 14 15 14 13 13 13 12 12 14 14
42 44 40 45 46 47 37 39 39 35 40 9 5 1 7 10 11 10 9 8 8 11 13 13 11 10 11 10 9 10 11 11 12 12 12 13 13 13 15 16 16 16 16 15 15 14 15 16 15
40 47 45 41 42 43 41 42 39 42 19 7 3 7 10 11 11 10 12 12 13 13 13 12 12 12 12 10 10 10 11 12 12 13 13 12 13 14 16 17 17 17 16 16 15 17 19 17 14
43 47 47 45 44 44 38 37 23 7 6 3 8 12 13 14 12 12 14 14 12 12 12 12 13 13 13 12 11 11 12 12 12 13 13 13 12 13 17 17 17 17 17 15 15 14 15 16 18
Wind_Direction
282 285 281 277 294 296 302 336 4 336 358 338 341 342 341 355 351 356 84 69 67 73 95 95 97 89 88 83 79 79 77 73 69 64 57 51 48 44 40 35 33 28 22 13 3 348 339 329 322
288 280 284 286 286 287 302 299 319 350 345 275 335 332 3 13 34 46 66 80 76 75 96 101 105 98 92 90 85 84 82 80 71 64 58 50 48 44 40 35 31 25 19 10 358 350 342 334 326
277 273 283 283 282 290 306 295 329 347 305 288 324 341 344 10 34 37 73 79 63 65 87 91 100 96 96 95 95 96 92 85 76 67 59 52 48 44 36 29 26 22 16 4 351 342 334 331 324
284 289 284 275 280 280 293 261 320 320 341 234 249 350 359 17 14 35 75 69 52 59 74 91 97 94 104 101 108 105 103 95 84 74 63 57 53 45 35 28 22 18 14 4 349 335 325 318 319
284 280 281 281 285 285 287 297 332 336 350 147 348 332 349 22 41 34 34 59 45 53 66 94 129 116 109 117 123 121 119 113 98 85 71 64 54 46 35 28 19 18 14 6 354 342 324 308 305
287 285 280 275 277 284 293 290 333 326 314 314 338 342 357 36 31 34 18 15 46 61 87 102 135 144 132 134 149 151 145 139 126 103 78 71 55 43 34 27 20 19 16 7 359 347 336 322 304
278 279 275 277 273 269 285 317 321 307 310 330 342 356 12 20 32 28 19 26 358 341 14 119 146 157 161 162 166 174 173 169 162 139 96 77 54 42 34 28 22 17 14 8 2 352 341 329 316
275 280 274 276 275 270 283 306 320 319 305 324 346 326 340 15 1 357 8 9 4 10 289 218 209 197 180 185 193 189 190 194 192 186 162 102 54 36 29 19 16 16 13 6 0 355 347 338 328
274 271 270 272 277 281 282 293 300 318 310 308 320 328 319 305 318 337 344 347 353 0 283 240 226 230 204 206 222 207 206 215 213 210 206 203 7 9 10 10 13 14 10 7 4 355 346 340 332
263 267 268 274 280 280 284 293 280 291 304 315 309 315 309 286 325 324 321 322 329 332 312 280 260 253 236 237 232 229 223 228 227 227 225 237 282 327 349 1 2 4 5 7 5 0 354 345 334
263 265 274 276 276 280 282 286 290 291 291 303 307 311 312 298 306 316 315 315 317 319 326 292 266 258 247 245 241 257 248 242 237 230 232 240 273 301 334 351 354 355 356 357 360 1 357 350 344
266 268 271 275 275 276 276 286 282 284 289 294 298 296 307 309 310 311 313 315 315 312 314 313 273 273 250 248 245 254 261 250 240 231 232 244 263 276 308 340 345 348 352 351 354 355 355 356 354
263 268 272 273 274 274 280 277 280 282 285 289 296 296 297 303 305 303 303 305 307 306 302 309 293 281 250 245 253 258 265 258 233 228 231 235 252 265 314 330 342 345 349 346 348 348 350 350 345
268 272 270 272 270 273 276 277 279 282 290 294 296 297 299 301 303 303 302 301 297 304 301 313 297 268 251 242 249 253 255 261 238 243 232 226 226 273 317 326 331 341 345 345 345 343 342 338 332
269 270 272 267 271 274 283 275 277 288 290 290 293 292 294 297 303 301 299 299 297 300 303 308 294 273 253 245 251 255 256 258 252 252 238 229 227 295 319 325 331 332 336 335 334 332 331 328 326
267 270 264 266 272 274 280 258 283 287 289 291 290 293 293 295 296 300 301 308 293 289 303 306 296 273 259 243 255 253 247 256 263 260 241 229 250 311 320 324 325 329 331 331 329 327 319 318 318
263 262 266 271 265 274 274 278 284 288 288 289 287 286 290 288 288 298 301 299 294 292 300 302 290 279 261 250 231 264 256 278 262 275 284 239 274 311 320 325 326 329 330 329 326 324 316 312 312
263 261 265 268 274 274 275 277 271 255 288 287 290 292 291 292 283 289 305 295 286 288 296 299 289 284 279 273 260 269 289 281 329 295 279 289 303 313 321 324 324 325 327 325 324 320 316 314 310
268 265 269 274 273 273 274 280 275 270 287 290 291 297 298 288 281 276 301 302 300 302 305 297 291 283 276 273 266 254 275 284 295 299 314 292 312 319 324 327 329 329 326 323 323 320 312 312 311
262 265 267 274 275 275 274 281 283 281 286 286 281 277 288 287 278 288 303 304 297 299 308 313 298 283 277 271 284 281 274 311 321 320 297 318 324 332 334 335 335 332 331 332 332 328 326 321 320
257 259 266 269 275 266 277 281 275 268 276 287 293 296 292 290 287 287 293 304 285 283 303 311 301 294 292 288 308 353 3 347 337 321 322 330 336 340 344 343 342 344 347 348 346 349 344 336 322
259 261 265 267 271 271 277 278 278 260 266 251 268 277 247 252 270 277 289 301 297 287 296 307 312 324 358 106 64 128 357 352 0 10 352 348 349 350 350 348 353 0 12 21 21 28 37 8 337
255 262 261 267 268 270 271 281 245 289 236 289 280 302 248 249 253 265 267 280 281 306 309 314 337 9 50 77 60 62 68 23 46 8 5 15 7 4 5 10 18 35 54 57 63 65 57 42 351
258 258 260 261 265 266 253 260 243 228 229 289 236 237 244 242 258 277 337 62 74 342 352 5 30 26 58 64 69 66 41 39 28 29 22 13 13 11 19 41 70 68 61 69 77 82 88 107 128
253 250 253 254 254 251 265 269 223 269 285 235 240 247 234 259 339 52 112 100 102 100 78 41 59 68 66 74 75 50 43 24 19 15 10 15 14 23 44 65 72 80 84 93 98 97 102 130 146
249 246 244 247 250 258 258 268 230 241 273 241 227 249 328 2 60 97 101 100 100 97 79 74 94 89 71 72 69 48 30 20 20 12 14 28 28 47 57 74 84 107 93 105 99 79 111 149 161
245 244 246 250 259 261 260 266 250 240 251 294 301 353 48 74 91 96 100 98 92 84 89 98 97 87 71 79 60 44 26 31 31 23 30 37 47 57 69 81 91 98 94 100 94 96 104 128 100
247 244 244 242 247 252 257 261 261 273 272 255 270 67 90 97 96 94 99 101 92 96 99 97 91 85 87 81 66 57 51 44 40 31 42 46 63 65 78 96 100 100 88 104 101 108 85 60 46
243 241 243 250 244 248 255 258 254 267 269 257 209 131 120 111 104 96 101 101 103 99 97 94 94 94 93 84 79 74 62 54 46 39 55 62 47 78 86 105 101 102 91 95 132 116 84 53 346
248 247 241 240 239 243 252 252 278 310 286 226 134 123 120 116 108 105 108 106 101 96 93 94 95 97 97 91 87 76 67 55 58 45 60 65 68 60 114 113 88 93 91 113 125 117 123 119 98